Regional Weather Roundup
Issued by NWS Green Bay, WI

Home | Current Version | Previous Version | Graphics & Text | Print | Product List | Glossary Off
Versions: 1 2 3 4 5 6 7 8 9 10 11 12 13 14 15 16 17 18 19 20 21 22 23 24 25 26 27 28 29 30 31 32 33 34 35 36 37 38 39 40 41 42 43 44 45 46 47 48 49 50

000
ASUS43 KGRB 251111
RWRGRB

NORTH-CENTRAL AND NORTHEAST WISCONSIN REGIONAL WEATHER ROUNDUP
NATIONAL WEATHER SERVICE GREEN BAY WI
600 AM CDT THU MAY 25 2017

WIZ005-009-010>012-018-019-251200-
NORTH CENTRAL WISCONSIN

CITY           SKY/WX    TMP DP  RH WIND       PRES   REMARKS
IRONWOOD       CLOUDY    45  44  97 E3        29.76S
MANITOWISH WTR PTCLDY    45  45 100 CALM      29.74S
ARBOR VITAE    CLEAR     45  43  95 N3        29.73S
EAGLE RIVER    MOCLDY    46  45  98 N3        29.73S
LAND O LAKES   CLOUDY    47  43  88 CALM      29.76S
RHINELANDER    PTCLDY    47  45  93 NE3       29.73S
PHILLIPS       PTCLDY    44  44 100 CALM      29.73R
ANTIGO         MOCLDY    46  46  98 NE8       29.71S
TOMAHAWK       MOCLDY    45  44  97 CALM      29.73R FOG
MERRILL        PTCLDY    47  47 100 CALM      29.72S
$$

WIZ013-073-251200-
NORTHEAST WISCONSIN

CITY           SKY/WX    TMP DP  RH WIND       PRES   REMARKS
IRON MOUNTAIN  MOCLDY    45  43  93 CALM      29.71S
MARINETTE      MOCLDY    49  46  90 N7        29.68S
OCONTO         CLEAR     48  46  90 N6        29.67R
$$

WIZ017-030-035>037-045-251200-
CENTRAL WISCONSIN

CITY           SKY/WX    TMP DP  RH WIND       PRES   REMARKS
MEDFORD        PTCLDY    43  43  98 NE3       29.71S
WAUSAU         CLEAR     49  47  93 CALM      29.69S
MOSINEE        PTCLDY    48  48 100 N7        29.71S
MARSHFIELD     MOCLDY    48  46  93 N3        29.70R
WISC RAPIDS    CLEAR     49  47  93 N5        29.71R
STEVENS POINT  CLEAR     43  43 100 NW3       29.70R FOG
WAUPACA        CLEAR     49  48  97 N5        29.68S
SHAWANO        PTCLDY    51  47  88 N6        29.69S
CLINTONVILLE   CLEAR     48  46  93 N6        29.67F
WAUTOMA        PTCLDY    50  48  93 N5        29.69R
$$

WIZ038-039-048-051-251200-
FOX VALLEY

CITY           SKY/WX    TMP DP  RH WIND       PRES   REMARKS
NWS GREEN BAY  CLEAR     48  48 100 N7        29.66S
APPLETON       PTCLDY    48  48 100 N10       29.64F
OSHKOSH        CLOUDY    51  48  89 N9        29.65S
FOND DU LAC    CLOUDY    53  48  83 N9        29.65R
$$

WIZ022-050-052-251200-
EAST CENTRAL WISCONSIN

CITY           SKY/WX    TMP DP  RH WIND       PRES   REMARKS
EPHRAIM        FAIR      46  46 100 N10       29.66S
WASHINGTON ISL PTSUNNY   47  45  93 N8        29.67S
STURGEON BAY   PTCLDY    51  48  89 NE9       29.66F
MANITOWOC      CLEAR     49  46  90 N8        29.64S
SHEBOYGAN      CLEAR     49  49 100 N6        29.63R
$$

LMZ563-521-522-541>543-251200-
LAKESHORE

STATION/POSITION TIME  TEMP    WIND        PRES    VSBY  WAVE
                       AIR SEA DIR/SP/G                  HT/PER
                 (UTC) (F)     (DEG/KT/KT) (MB)    (MI)  (FT/S)
SHEBOYGAN LKSHOR 1100   49     350/ 15/ 18 1003.2R
KEWAUNEE LKSHORE 1048   53      10/ 11/ 17 1003.6R
NORTHPORT PIER   1040   47     330/  8/  9 1004.7F
N MID LAKE BUOY  1050   44 40   20/ 12/ 14 1005.2R         1/ 3
CHAMBERS ISLAND  1040   49     360/ 10/ 13 1004.4S
MENOMINEE LKSHOR 1048          340/ 10/ 11 1004.1R
$$



USA.gov is the U.S. government's official web portal to all federal, state and local government web resources and services.